Home > Weather > Pomona > Past weeks

Flag for USA Past Weather in Pomona, California, USA — Yesterday and Last 2 Weeks

Now
72 °F

Sunny.


Feels Like: 74 °F
Forecast: 68 / 98 °F
Wind: 5 mph from West

Location: Chino Airport

Current Time: Jun 30, 2016 at 8:56:01 AM

Latest Report: Jun 30, 2016 at 7:53 AM


Visibility: 6 mi

Pressure: 29.87 "Hg

Humidity: 71%

Dew Point: 62 °F

Location of PomonaLocation

Past Weather in Pomona — Graph

°F

Pomona Temperature Yesterday

Maximum temperature yesterday: 100 °F (at 1:53 PM)
Minimum temperature yesterday: 66 °F (at 5:53 AM)
Average temperature yesterday: 81 °F

High & Low Weather Summary for the Past Weeks

 TemperatureHumidityPressure
High114 °F (Jun 19, 2:53 PM)90% (Jun 23, 4:53 AM)30.04 "Hg (Jun 23, 4:53 AM)
Low55 °F (Jun 16, 4:53 AM)3% (Jun 19, 2:53 PM)29.79 "Hg (Jun 25, 4:53 PM)
Average78 °F50%29.91 "Hg
* Reported Jun 15 6:53 AM — Jun 30 6:53 AM, Pomona, Weather by CustomWeather, © 2016

Note: Actual official high and low records may vary slightly from our data, if they occured in-between our weather recording intervals... More about our weather records

Advertising

Pomona Weather History for the Previous 24 Hours

Scroll right to see more
 ConditionsComfort  
Time TempWeatherWind HumidityBarometerVisibility
6:53 AM
Thu, Jun 30
68 °FSunny.3 mph82%29.87 "Hg6 mi
5:53 AM66 °FClear.No wind84%29.86 "Hg4 mi
4:53 AM66 °FClear.No wind84%29.85 "Hg5 mi
3:53 AM66 °FClear.No wind84%29.84 "Hg6 mi
2:53 AM67 °FClear.5 mph81%29.85 "Hg6 mi
1:53 AM68 °FClear.6 mph82%29.85 "Hg7 mi
12:53 AM70 °FClear.8 mph73%29.86 "Hg7 mi
11:53 PM
Wed, Jun 29
72 °FClear.8 mph64%29.86 "Hg8 mi
10:53 PM73 °FClear.7 mph64%29.86 "Hg8 mi
9:53 PM75 °FClear.6 mph60%29.86 "Hg8 mi
8:53 PM79 °FSunny.9 mph52%29.84 "Hg10 mi
7:53 PM82 °FSunny.12 mph46%29.82 "Hg10 mi
6:53 PM88 °FSunny.15 mph35%29.82 "Hg10 mi
5:53 PM93 °FPassing clouds.14 mph27%29.81 "Hg10 mi
4:53 PM95 °FPassing clouds.15 mph26%29.81 "Hg10 mi
3:53 PM98 °FPassing clouds.15 mph23%29.82 "Hg10 mi
2:53 PM99 °FPassing clouds.15 mph26%29.83 "Hg10 mi
1:53 PM100 °FPassing clouds.13 mph24%29.85 "Hg10 mi
12:53 PM99 °FPassing clouds.7 mph26%29.86 "Hg10 mi
11:53 AM94 °FPassing clouds.No wind28%29.88 "Hg10 mi
10:53 AM89 °FSunny.No wind35%29.90 "Hg6 mi
9:53 AM85 °FSunny.5 mph45%29.90 "Hg7 mi
8:53 AM78 °FSunny.No wind58%29.91 "Hg6 mi
Weather by CustomWeather, © 2016

See weather overviewHow to use our weather pages